User: anonymous
Location: Bethera
(33.2010°N, 79.7880°W)
Time: 01:58:23
(UTC-04:00)
Language:

Cosmos 1833 Rocket - Orbit

View from above orbital plane
View from above orbital plane
View from above satellite
View from above satellite

Ground track
Ground track

The orbit data is extracted from the following two-line orbital elements,

1 17590U 87027B   14273.44282166  .00000284  00000-0  16601-3 0  7951
2 17590 071.0027 076.1143 0005322 350.2561 009.8458 14.16647884423807
Epoch (UTC): 30 September 2014 10:37:39
Eccentricity: 0.0005322
inclination: 71.0027°
perigee height: 833 km
apogee height: 840 km
right ascension of ascending node: 76.1143°
argument of perigee: 350.2561°
revolutions per day: 14.16647884
mean anomaly at epoch: 9.8458°
orbit number at epoch: 42380

The dashed part of the orbit path shows where the satellite is in the earth's shadow,  

DLR